This demonstration page uses our WeatherBlox Daily Observations layout. Learn more.

Left ArrowRight Arrow

39.51506, -84.39828

Hourly Observations for September 17, 2021

Temp ( °F °C ) Dew Point ( °F °C ) Humidity (%) Winds ( mph kmh ) Pressure ( in mb ) Visibility ( mi km ) Precip ( " mm )
12:15 am 00:15 Hazy 63 17 N/A N/A NNE 3 6 30.12 1020 4 6 N/A
12:35 am 00:35 Hazy 63 17 N/A N/A N N/A 30.11 1020 4 6 N/A
12:55 am 00:55 Cloudy with Fog 63 17 N/A N/A N N/A 30.11 1020 0 0 N/A
1:15 am 01:15 Partly Cloudy with Mist and Fog 63 17 N/A N/A N N/A 30.11 1020 2 3 N/A
1:35 am 01:35 Hazy 63 17 N/A N/A N N/A 30.11 1020 5 8 N/A
1:55 am 01:55 Clear with Mist and Fog 61 16 N/A N/A N N/A 30.10 1019 4 6 N/A
2:15 am 02:15 Mostly Cloudy with Fog 61 16 N/A N/A N N/A 30.10 1019 1 1 N/A
2:35 am 02:35 Hazy 61 16 N/A N/A N N/A 30.09 1019 4 6 N/A
2:55 am 02:55 Hazy 61 16 N/A N/A N N/A 30.09 1019 4 6 N/A
3:15 am 03:15 Clear with Mist and Fog 61 16 N/A N/A N N/A 30.08 1019 4 6 N/A
3:35 am 03:35 Clear with Mist and Fog 61 16 N/A N/A N N/A 30.08 1019 4 6 N/A
3:55 am 03:55 Clear with Mist and Fog 61 16 N/A N/A NE 3 6 30.09 1019 4 6 N/A
4:15 am 04:15 Hazy 61 16 N/A N/A N N/A 30.10 1019 5 8 N/A
4:35 am 04:35 Hazy 61 16 N/A N/A NNE 3 6 30.11 1020 4 6 N/A
4:55 am 04:55 Clear with Mist and Fog 61 16 N/A N/A NNE 3 6 30.11 1020 3 4 N/A
5:15 am 05:15 Clear with Mist and Fog 61 16 N/A N/A NE 3 6 30.11 1020 2 3 N/A
5:35 am 05:35 Clear with Mist and Fog 61 16 N/A N/A NNE 3 6 30.12 1020 3 5 N/A
5:55 am 05:55 Clear with Mist and Fog 59 15 N/A N/A N 5 7 30.13 1020 4 6 N/A
6:15 am 06:15 Hazy 59 15 N/A N/A NNE 3 6 30.14 1021 4 6 N/A
6:35 am 06:35 Clear with Mist and Fog 59 15 N/A N/A NNE 3 6 30.14 1021 4 6 N/A
6:55 am 06:55 Clear with Mist and Fog 61 16 N/A N/A N 3 6 30.13 1020 4 6 N/A
7:15 am 07:15 Clear with Mist and Fog 61 16 N/A N/A NNE 5 7 30.14 1021 3 5 N/A
7:35 am 07:35 Sunny with Mist and Fog 59 15 N/A N/A N N/A 30.15 1021 3 4 N/A
7:55 am 07:55 Sunny with Mist and Fog 61 16 N/A N/A N 3 6 30.14 1021 3 4 N/A
8:15 am 08:15 Sunny with Mist and Fog 63 17 N/A N/A NNE 3 6 30.14 1021 3 5 N/A
8:35 am 08:35 Sunny with Mist and Fog 64 18 N/A N/A NNE 3 6 30.15 1021 4 6 N/A
8:55 am 08:55 Hazy 64 18 N/A N/A N N/A 30.15 1021 5 8 N/A
9:15 am 09:15 Hazy 66 19 N/A N/A NE 5 7 30.16 1021 5 8 N/A
9:35 am 09:35 Sunny with Mist and Fog 68 20 68 19.8 99 99 NE 3 6 30.15 1021 7 11 N/A
9:55 am 09:55 Sunny 70 21.1 69 20.4 96 96 E 3 6 30.15 1021 7 11 N/A
10:15 am 10:15 Sunny 72 22.1 69 20.6 91 91 N N/A 30.16 1021 10 16 N/A
10:35 am 10:35 Sunny 73 23 70 21.2 90 90 N N/A 30.16 1021 10 16 N/A
10:55 am 10:55 Sunny 75 23.7 70 21.2 86 86 SSW 3 6 30.16 1021 10 16 N/A
11:15 am 11:15 Sunny 76 24.7 71 21.6 83 83 WSW 3 6 30.15 1021 10 16 N/A
11:35 am 11:35 Sunny 77 25 71 21.7 82 82 N N/A 30.15 1021 10 16 N/A
11:55 am 11:55 Sunny 78 25.8 71 21.9 79 79 SSW 3 6 30.15 1021 7 11 N/A
12:15 pm 12:15 Sunny 80 26.8 71 21.6 73 73 SSE 3 6 30.14 1021 10 16 N/A
12:35 pm 12:35 Sunny 81 27.4 71 21.7 71 71 SSW 3 6 30.14 1021 7 11 N/A
12:55 pm 12:55 Sunny 82 27.5 67 19.2 61 61 N N/A 30.14 1021 10 16 N/A
1:15 pm 13:15 Sunny 83 28.3 66 18.8 56 56 N N/A 30.13 1020 10 16 N/A
1:35 pm 13:35 Sunny 83 28.5 67 19.7 59 59 N N/A 30.12 1020 7 11 N/A
1:55 pm 13:55 Sunny 85 29.6 68 20 56 56 S 5 7 30.11 1020 10 16 N/A
2:15 pm 14:15 Sunny 84 29 67 19.2 55 55 SSE 3 6 30.10 1019 10 16 N/A
2:35 pm 14:35 Sunny 85 29.4 66 18.7 53 53 SE 3 6 30.09 1019 7 11 N/A
2:55 pm 14:55 Sunny 85 29.5 65 18.4 51 51 N N/A 30.08 1019 10 16 N/A
3:15 pm 15:15 Sunny 85 29.6 66 18.9 53 53 W 6 9 30.07 1018 10 16 N/A
3:35 pm 15:35 Sunny 86 29.8 66 18.8 52 52 WSW 3 6 30.06 1018 10 16 N/A
3:55 pm 15:55 Sunny 85 29.3 66 18.7 53 53 WNW 5 7 30.06 1018 10 16 N/A
4:15 pm 16:15 Sunny 86 29.8 66 18.8 52 52 N N/A 30.06 1018 10 16 N/A
4:35 pm 16:35 Sunny 86 29.8 65 18.6 51 51 WSW 3 6 30.05 1018 10 16 N/A
4:55 pm 16:55 Partly Cloudy 86 30.1 66 19 51 51 N N/A 30.05 1018 10 16 N/A
5:15 pm 17:15 Mostly Cloudy 86 30 66 18.7 51 51 SW 5 7 30.05 1018 10 16 N/A
5:35 pm 17:35 Partly Cloudy 86 30 66 18.8 51 51 N N/A 30.05 1018 10 16 N/A
5:55 pm 17:55 Sunny 86 29.9 65 18.5 50 50 N N/A 30.04 1017 10 16 N/A
6:15 pm 18:15 Sunny 85 29.7 67 19.3 54 54 WSW 6 9 30.05 1018 10 16 N/A
6:35 pm 18:35 Sunny 85 29.5 67 19.6 55 55 WSW 5 7 30.05 1018 10 16 N/A
6:55 pm 18:55 Sunny 84 29 68 20.2 59 59 SE 5 7 30.05 1018 10 16 N/A
7:15 pm 19:15 Sunny 83 28.2 68 19.9 61 61 SSE 5 7 30.05 1017 10 16 N/A
7:35 pm 19:35 Sunny 82 27.5 68 19.9 63 63 S 5 7 30.05 1018 10 16 N/A
7:55 pm 19:55 Clear 75 24.1 71 21.8 87 87 N N/A 30.06 1018 10 16 N/A
8:15 pm 20:15 Clear 73 22.7 72 22.2 97 97 WSW 3 6 30.07 1018 10 16 N/A
8:35 pm 20:35 Clear 72 22.4 72 22.3 99 99 W 3 6 30.07 1018 10 16 N/A
8:55 pm 20:55 Clear 70 21 70 21 100 100 N N/A 30.08 1019 10 16 N/A
9:15 pm 21:15 Clear 70 21 N/A N/A N N/A 30.09 1019 10 16 N/A
9:35 pm 21:35 Clear 70 21 70 21 100 100 W 3 6 30.10 1019 10 16 N/A
9:55 pm 21:55 Clear 70 21 N/A N/A N N/A 30.10 1019 10 16 N/A
10:15 pm 22:15 Clear 68 20 N/A N/A N N/A 30.10 1019 10 16 N/A
10:35 pm 22:35 Clear 68 20 68 20 100 100 WNW 3 6 30.10 1019 10 16 N/A
10:55 pm 22:55 Clear 68 20 N/A N/A N N/A 30.11 1020 10 16 N/A
11:15 pm 23:15 Clear 68 20 N/A N/A SE 3 6 30.10 1019 10 16 N/A
11:35 pm 23:35 Clear 68 20 N/A N/A N N/A 30.11 1020 10 16 N/A
11:55 pm 23:55 Clear 66 19 N/A N/A NW 3 6 30.13 1020 10 16 N/A

Powered by AerisWeather